OCO 2

Last updated on Sat Jul 05 2025 00:03:30 GMT+0000 (Coordinated Universal Time)

1 40059U 14035A 25185.54977507 .00000356 00000+0 88933-4 0 9994 2 40059 98.2017 126.8187 0001409 73.8740 286.2614 14.57145534585425
UTC large
Height (km)
Speed (km/s)
/
Latitude / Longitude
Inclination (degrees)
Orbital Period (minutes)
Azimuth
Elevation
Range (km)
Doppler Factor

Next 0 passes for location: London (51.5072 / 0.1276)

Sorry there are no passes over London.